Location: İstanbul
(41.0082°N, 28.9784°E)
Time: 22:08:08
(UTC+03:00)

DELFI C3 - Visible Passes

Search period start: 21 October 2021 00:00
Search period end: 31 October 2021 00:00
Orbit: 528 x 546 km, 97.4° (Epoch: 21 October)

Date Brightness Start Highest point End Pass type
(mag) Time Alt. Az. Time Alt. Az. Time Alt. Az.
21 Oct ? 20:20:12 40° NNW 20:20:12 40° NNW 20:22:45 10° NNW visible
22 Oct ? 20:12:08 36° N 20:12:08 36° N 20:14:31 10° N visible
23 Oct ? 20:04:03 32° N 20:04:03 32° N 20:06:16 10° N visible
24 Oct ? 19:55:58 27° NNE 19:55:58 27° NNE 19:57:58 10° N visible
25 Oct ? 19:47:52 23° NNE 19:47:52 23° NNE 19:49:38 10° N visible
26 Oct ? 19:39:46 19° NNE 19:39:46 19° NNE 19:41:15 10° N visible
27 Oct ? 19:31:39 16° NNE 19:31:39 16° NNE 19:32:48 10° NNE visible
27 Oct ? 21:07:07 11° NW 21:07:07 11° NW 21:07:14 10° NW visible
28 Oct ? 19:23:32 13° NNE 19:23:32 13° NNE 19:24:18 10° NNE visible
28 Oct ? 20:58:59 11° NW 20:58:59 11° NW 20:59:12 10° NW visible
29 Oct ? 19:15:24 11° NNE 19:15:24 11° NNE 19:15:42 10° NNE visible
29 Oct ? 20:50:51 11° NNW 20:50:51 11° NNW 20:51:06 10° NNW visible
30 Oct ? 20:42:42 12° NNW 20:42:42 12° NNW 20:42:58 10° NNW visible
